Weather History for KDMO - November, 2012

Change the Weather History Date:

Thursday, November 29, 2012

  Actual Average Record
Temperature  
Mean Temperature 51 °F 40 °F  
Max Temperature 65 °F 49 °F 73 °F (1998)
Min Temperature 36 °F 32 °F 5 °F (1976)
Degree Days  
Heating Degree Days 14 25  
Month to date heating degree days 508 528  
Since 1 July heating degree days 867 819  
Cooling Degree Days 0 0  
Month to date cooling degree days 4 0  
Year to date cooling degree days 2111 1487  
Moisture  
Dew Point 34 °F    
Average Humidity 60    
Maximum Humidity 76    
Minimum Humidity 43    
Precipitation  
Precipitation 0.00 in 0.10 in 1.99 in (2006)
Month to date precipitation 1.50 3.00  
Year to date precipitation 29.42 38.69  
Sea Level Pressure  
Sea Level Pressure 30.11 in    
Wind  
Wind Speed 11 mph (SSW)    
Max Wind Speed 22 mph    
Max Gust Speed 26 mph    
Visibility 10 miles    
Events      
T = Trace of Precipitation, MM = Missing Value Source: NWS Daily Summary

Daily Weather History Graph

Daily Weather History Graph

Search for Another Location

Airport or City:

Trip Planner

Search our weather history database for the weather conditions in past years. The results will help you decide how hot, cold, wet, or windy it might be!

Date:

Astronomy

Nov. 29, 2012 Rise Set
Actual Time 7:10 AM CST 4:51 PM CST
Civil Twilight 6:41 AM CST 5:21 PM CST
Nautical Twilight 6:08 AM CST 5:54 PM CST
Astronomical Twilight 5:36 AM CST 6:26 PM CST
Moon 5:55 PM CST 7:57 AM CST
Length of Visible Light 10h 40m
Length of Day
9h 41m
Full, 99% of the Moon is Illuminated
Nov 29
Full
Dec 6
Last Quarter
Dec 13
New
Dec 19
First Quarter
Dec 28
Full

Hourly Weather History & Observations

Time (CST) Temp. Windchill Dew Point Humidity Pressure Visibility Wind Dir Wind Speed Gust Speed Precip Events Conditions
12:53 AM 37.9 °F 32.1 °F 28.0 °F 68% 30.22 in 10.0 mi South 8.1 mph - N/A   Clear
1:53 AM 37.9 °F 32.1 °F 28.9 °F 70% 30.22 in 10.0 mi South 8.1 mph - N/A   Clear
2:53 AM 37.0 °F 30.4 °F 28.9 °F 73% 30.22 in 10.0 mi South 9.2 mph - N/A   Clear
3:53 AM 37.9 °F 31.5 °F 30.0 °F 73% 30.21 in 10.0 mi South 9.2 mph - N/A   Clear
4:53 AM 39.9 °F 33.9 °F 30.9 °F 70% 30.20 in 10.0 mi South 9.2 mph - N/A   Clear
5:53 AM 39.9 °F 32.5 °F 30.9 °F 70% 30.19 in 10.0 mi South 12.7 mph - N/A   Clear
6:53 AM 42.1 °F 34.5 °F 30.9 °F 65% 30.17 in 10.0 mi South 15.0 mph - N/A   Clear
7:53 AM 44.1 °F 37.1 °F 32.0 °F 63% 30.17 in 10.0 mi South 15.0 mph - N/A   Clear
8:53 AM 48.9 °F - 33.1 °F 54% 30.16 in 10.0 mi South 15.0 mph - N/A   Clear
9:53 AM 51.1 °F - 34.0 °F 52% 30.14 in 10.0 mi South 18.4 mph 25.3 mph N/A   Clear
10:53 AM 55.0 °F - 36.0 °F 49% 30.12 in 10.0 mi SSW 16.1 mph - N/A   Clear
11:53 AM 57.9 °F - 37.9 °F 47% 30.09 in 10.0 mi SW 13.8 mph 24.2 mph N/A   Clear
12:53 PM 61.0 °F - 39.9 °F 46% 30.08 in 10.0 mi SW 12.7 mph - N/A   Clear
1:53 PM 64.0 °F - 42.1 °F 45% 30.05 in 10.0 mi SW 10.4 mph 19.6 mph N/A   Clear
2:53 PM 64.0 °F - 42.1 °F 45% 30.03 in 10.0 mi SSW 8.1 mph - N/A   Clear
3:53 PM 64.0 °F - 41.0 °F 43% 30.03 in 10.0 mi SSW 10.4 mph - N/A   Clear
4:53 PM 59.0 °F - 39.0 °F 48% 30.02 in 10.0 mi South 9.2 mph - N/A   Clear
5:53 PM 53.1 °F - 36.0 °F 52% 30.02 in 10.0 mi South 10.4 mph - N/A   Clear
6:53 PM 53.1 °F - 36.0 °F 52% 30.03 in 10.0 mi South 9.2 mph - N/A   Clear
7:53 PM 53.1 °F - 35.1 °F 50% 30.04 in 10.0 mi SSW 4.6 mph - N/A   Clear
8:53 PM 51.1 °F - 34.0 °F 52% 30.05 in 10.0 mi South 8.1 mph - N/A   Clear
9:53 PM 50.0 °F - 34.0 °F 54% 30.05 in 10.0 mi South 10.4 mph - N/A   Clear
10:53 PM 53.1 °F - 32.0 °F 45% 30.06 in 10.0 mi SSW 12.7 mph - N/A   Clear
11:53 PM 52.0 °F - 32.0 °F 47% 30.06 in 10.0 mi SSW 13.8 mph 21.9 mph N/A   Clear